Regional Weather Roundup
Issued by NWS Sioux Falls, SD

Home | Current Version | Previous Version | Text Only | Print | Product List | Glossary On
Versions: 1 2 3 4 5 6 7 8 9 10 11 12 13 14 15 16 17 18 19 20 21 22 23 24 25 26 27 28 29 30 31 32 33 34 35 36 37 38 39 40 41 42 43 44 45 46 47 48 49 50
000
ASUS43 KFSD 311410
RWRFSD

WEATHER ROUNDUP FOR SE SOUTH DAKOTA/SW MINNESOTA/NW IOWA
NATIONAL WEATHER SERVICE SIOUX FALLS SD
900 AM CDT TUE MAY 31 2016

NOTE: "FAIR" INDICATES FEW OR NO CLOUDS BELOW 12,000 FEET WITH NO
SIGNIFICANT WEATHER AND OR OBSTRUCTIONS TO VISIBILITY.


SDZ038>040-050-052>070-311500-
SOUTHEAST SOUTH DAKOTA

CITY           SKY/WX    TMP DP  RH WIND       PRES   REMARKS
BROOKINGS      MOSUNNY   59  53  80 W17       29.88S
CHAMBERLAIN    SUNNY     59  46  61 NW12      29.96F
HURON          SUNNY     60  46  59 W18       29.90S
MADISON        PTSUNNY   57  57 100 NW13      29.92R
MITCHELL       SUNNY     61  51  70 W15       29.94S
SIOUX FALLS    CLOUDY    61  55  81 NW12      29.92S
WINNER         FAIR      58  42  55 NW13      29.97F
YANKTON        MOSUNNY   61  50  67 NW23      29.93F
$$

MNZ071-072-080-081-089-090-097-098-311500-
SOUTHWEST MINNESOTA

CITY           SKY/WX    TMP DP  RH WIND       PRES   REMARKS
FAIRMONT       CLOUDY    64  61  88 S9        29.88F
JACKSON        DRIZZLE   63  59  88 W12G17    29.89F
LUVERNE        CLOUDY    59  54  82 NW13      29.92S
MARSHALL       CLOUDY    62  56  80 W14       29.88R
MONTEVIDEO     CLOUDY    63  63 100 W8        29.86S
PIPESTONE      CLOUDY    61  55  82 W8        29.91S
REDWOOD FALLS  CLOUDY    64  59  83 W13       29.86R
TRACY          CLOUDY    62  58  87 W6        29.89S
WINDOM         PTSUNNY   64  61  88 W13G18    29.89S
WORTHINGTON    CLOUDY    60  57  89 W13       29.91S
$$

IAZ001>003-012>014-020>022-031-032-NEZ013-014-SDZ071-311500-
NORTHWEST IOWA

CITY           SKY/WX    TMP DP  RH WIND       PRES   REMARKS
CHEROKEE       LGT RAIN  63  62  98 S3        29.90R
DENISON        PTSUNNY   68  63  83 VRB5      29.90S
ESTHERVILLE    CLOUDY    63  61  93 W13       29.89S
LE MARS        PTSUNNY   61  59  94 NW9G16    29.93R
ORANGE CITY    CLOUDY    61  57  88 CALM      29.91R
SHELDON        LGT RAIN  59  57  94 NW13G20   29.88S
SIOUX CITY     CLOUDY    63  58  83 NW12      29.93R
SPENCER        LGT RAIN  63  59  87 W10       29.89F
STORM LAKE     CLOUDY    64  61  88 NW7       29.92R
$$

ABBREVIATIONS USED IN REMARKS
   TC - TEMPERATURE IN CELSIUS
  WCI - WIND CHILL INDEX
   HX - HEAT INDEX
  VSB - VISIBILITY




USA.gov is the U.S. government's official web portal to all federal, state and local government web resources and services.